90915 UMMS-UMMS

Flight info

Callsign 90915
Flight time 0h 39m
Altitude 30000
Route AGNEF DCT LEGSI DCT BENIM DCT RAMBE DCT RUBUN DCT KAZAL DCT MNS VFR
Aircraft T134/M-SDE3GHIJ2J3J5M1RVWXYZ/LB2D1

Departure

Time 2026-05-06 15:45
Airport Minsk National Airport (UMMS)

Arrival

Time 2026-05-06 16:24
Airport Minsk National Airport (UMMS)
Time Latitude Longitude Altitude Speed Heading
2026-05-06 15:28 53.87397 28.04979 676 ft 0 kts 49°
2026-05-06 15:32 53.87416 28.05027 676 ft 4 kts 72°
2026-05-06 15:32 53.87414 28.05073 676 ft 4 kts 114°
2026-05-06 15:32 53.87397 28.05106 676 ft 4 kts 142°
2026-05-06 15:32 53.87368 28.05145 676 ft 3 kts 141°
2026-05-06 15:33 53.87345 28.05179 676 ft 6 kts 139°
2026-05-06 15:33 53.87324 28.05209 676 ft 2 kts 142°
2026-05-06 15:33 53.87290 28.05250 676 ft 7 kts 144°
2026-05-06 15:33 53.87261 28.05284 676 ft 3 kts 149°
2026-05-06 15:34 53.87239 28.05287 676 ft 3 kts 200°
2026-05-06 15:34 53.87222 28.05261 676 ft 5 kts 227°
2026-05-06 15:34 53.87201 28.05223 676 ft 1 kts 227°
2026-05-06 15:34 53.87197 28.05215 676 ft 0 kts 228°
2026-05-06 15:39 53.87169 28.05159 676 ft 11 kts 231°
2026-05-06 15:39 53.87093 28.05017 676 ft 22 kts 225°
2026-05-06 15:39 53.87065 28.04798 676 ft 19 kts 326°
2026-05-06 15:40 53.87235 28.04565 676 ft 43 kts 315°
2026-05-06 15:40 53.87468 28.04209 676 ft 48 kts 322°
2026-05-06 15:40 53.87732 28.03824 676 ft 53 kts 316°
2026-05-06 15:40 53.88018 28.03396 676 ft 57 kts 320°
2026-05-06 15:41 53.88223 28.03114 676 ft 13 kts 336°
2026-05-06 15:41 53.88321 28.03170 676 ft 22 kts 49°
2026-05-06 15:41 53.88453 28.03423 676 ft 29 kts 49°
2026-05-06 15:41 53.88594 28.03694 676 ft 29 kts 50°
2026-05-06 15:42 53.88747 28.03993 676 ft 40 kts 49°
2026-05-06 15:42 53.88971 28.04427 676 ft 54 kts 47°
2026-05-06 15:42 53.89164 28.04805 676 ft 27 kts 45°
2026-05-06 15:42 53.89307 28.04738 676 ft 24 kts 319°
2026-05-06 15:43 53.89461 28.04508 676 ft 40 kts 319°
2026-05-06 15:43 53.89745 28.04085 676 ft 62 kts 318°
2026-05-06 15:43 53.90064 28.03612 676 ft 49 kts 322°
2026-05-06 15:43 53.90197 28.03414 676 ft 20 kts 319°
2026-05-06 15:44 53.90308 28.03256 676 ft 20 kts 319°
2026-05-06 15:44 53.90407 28.03152 676 ft 14 kts 15°
2026-05-06 15:44 53.90490 28.03302 676 ft 21 kts 69°
2026-05-06 15:44 53.90440 28.03462 676 ft 18 kts 140°
2026-05-06 15:45 53.90231 28.03770 676 ft 74 kts 139°
2026-05-06 15:45 53.89937 28.04204 676 ft 115 kts 139°
2026-05-06 15:45 53.89180 28.05318 821 ft 160 kts 140°
2026-05-06 15:45 53.88309 28.06594 1334 ft 181 kts 140°
2026-05-06 15:46 53.87313 28.07956 1958 ft 194 kts 142°
2026-05-06 15:46 53.86069 28.09652 1620 ft 264 kts 142°
2026-05-06 15:46 53.84518 28.11707 1370 ft 295 kts 142°
2026-05-06 15:46 53.82989 28.13810 1990 ft 272 kts 141°
2026-05-06 15:47 53.81705 28.16067 2382 ft 256 kts 117°
2026-05-06 15:47 53.81319 28.18525 3814 ft 194 kts 99°
2026-05-06 15:47 53.81183 28.20765 4293 ft 209 kts 89°
2026-05-06 15:47 53.81267 28.23271 5033 ft 214 kts 87°
2026-05-06 15:48 53.81359 28.25555 6275 ft 192 kts 86°
2026-05-06 15:48 53.81466 28.28027 6136 ft 235 kts 86°
2026-05-06 15:48 53.81531 28.30110 6440 ft 240 kts 89°
2026-05-06 15:48 53.81534 28.30297 6516 ft 239 kts 89°
2026-05-06 15:49 53.81529 28.32891 7514 ft 222 kts 90°
2026-05-06 15:49 53.81594 28.35731 7130 ft 262 kts 86°
2026-05-06 15:49 53.81764 28.38900 6951 ft 283 kts 86°
2026-05-06 15:49 53.81915 28.42311 6752 ft 297 kts 85°
2026-05-06 15:50 53.82234 28.45758 6915 ft 297 kts 80°
2026-05-06 15:50 53.82431 28.49258 7069 ft 297 kts 83°
2026-05-06 15:50 53.82773 28.52683 7222 ft 297 kts 83°
2026-05-06 15:50 53.83035 28.56134 7372 ft 298 kts 77°
2026-05-06 15:51 53.83868 28.59337 7516 ft 299 kts 54°
2026-05-06 15:51 53.85311 28.61821 7666 ft 300 kts 36°
2026-05-06 15:51 53.87136 28.63515 7809 ft 300 kts 18°
2026-05-06 15:51 53.89187 28.64104 7960 ft 300 kts
2026-05-06 15:52 53.91253 28.64646 8108 ft 300 kts
2026-05-06 15:52 53.93309 28.65127 8253 ft 301 kts
2026-05-06 15:52 53.95441 28.65796 8441 ft 324 kts
2026-05-06 15:52 53.97749 28.66345 8704 ft 343 kts 10°
2026-05-06 15:53 54.00122 28.67043 9142 ft 354 kts
2026-05-06 15:53 54.02537 28.67691 9749 ft 358 kts 11°
2026-05-06 15:53 54.04992 28.68334 10412 ft 360 kts
2026-05-06 15:53 54.07474 28.69095 11078 ft 361 kts
2026-05-06 15:54 54.09961 28.69680 11726 ft 363 kts 10°
2026-05-06 15:54 54.12439 28.70458 12360 ft 365 kts
2026-05-06 15:54 54.14944 28.71085 12989 ft 367 kts 11°
2026-05-06 15:54 54.17459 28.71765 13618 ft 369 kts
2026-05-06 15:55 54.19981 28.72448 14248 ft 370 kts 10°
2026-05-06 15:55 54.22536 28.73121 14881 ft 372 kts
2026-05-06 15:55 54.25055 28.73846 15492 ft 374 kts
2026-05-06 15:55 54.27642 28.74541 16107 ft 375 kts
2026-05-06 15:56 54.30191 28.75262 16707 ft 377 kts
2026-05-06 15:56 54.32793 28.75983 17310 ft 379 kts
2026-05-06 15:56 54.35379 28.76703 17899 ft 380 kts
2026-05-06 15:56 54.37976 28.77432 18482 ft 382 kts
2026-05-06 15:57 54.40571 28.78154 19053 ft 383 kts
2026-05-06 15:57 54.43203 28.78892 19622 ft 385 kts
2026-05-06 15:57 54.45852 28.79634 20186 ft 386 kts
2026-05-06 15:57 54.48507 28.80378 20740 ft 388 kts
2026-05-06 15:58 54.51141 28.81278 21254 ft 389 kts
2026-05-06 15:58 54.53768 28.81850 21696 ft 379 kts
2026-05-06 15:58 54.56317 28.82605 21972 ft 369 kts
2026-05-06 15:58 54.58822 28.83278 22164 ft 359 kts
2026-05-06 15:59 54.61300 28.83980 22329 ft 363 kts
2026-05-06 15:59 54.63804 28.84688 22537 ft 376 kts
2026-05-06 15:59 54.66415 28.85421 22787 ft 387 kts
2026-05-06 15:59 54.69108 28.86186 23146 ft 393 kts
2026-05-06 16:00 54.71787 28.86945 23601 ft 396 kts
2026-05-06 16:00 54.74493 28.87714 24093 ft 397 kts
2026-05-06 16:00 54.77217 28.88489 24588 ft 399 kts
2026-05-06 16:00 54.79946 28.89267 25075 ft 400 kts
2026-05-06 16:01 54.82695 28.90051 25555 ft 401 kts
2026-05-06 16:01 54.85432 28.91048 25998 ft 404 kts 14°
2026-05-06 16:01 54.88153 28.92048 26425 ft 405 kts
2026-05-06 16:01 54.90928 28.92916 26895 ft 406 kts
2026-05-06 16:02 54.93715 28.93720 27358 ft 407 kts
2026-05-06 16:02 54.96499 28.94388 27769 ft 408 kts
2026-05-06 16:02 54.99298 28.93917 28042 ft 411 kts 345°
2026-05-06 16:02 55.01987 28.92171 28392 ft 412 kts 330°
2026-05-06 16:03 55.04312 28.89335 28782 ft 411 kts 316°
2026-05-06 16:03 55.06146 28.85602 29153 ft 409 kts 302°
2026-05-06 16:03 55.07579 28.81370 29574 ft 406 kts 299°
2026-05-06 16:03 55.08734 28.76878 29909 ft 405 kts 285°
2026-05-06 16:04 55.09159 28.72056 30160 ft 407 kts 271°
2026-05-06 16:04 55.08967 28.67093 30459 ft 406 kts 267°
2026-05-06 16:04 55.08921 28.62255 30781 ft 396 kts 268°
2026-05-06 16:04 55.08777 28.57530 30972 ft 382 kts 268°
2026-05-06 16:05 55.08668 28.52916 31063 ft 369 kts 267°
2026-05-06 16:05 55.08550 28.48553 30939 ft 355 kts 268°
2026-05-06 16:05 55.08437 28.44273 30907 ft 342 kts 268°
2026-05-06 16:05 55.08324 28.40208 30870 ft 330 kts 268°
2026-05-06 16:06 55.08212 28.36244 30780 ft 318 kts 268°
2026-05-06 16:06 55.08103 28.32412 30641 ft 307 kts 267°
2026-05-06 16:06 55.07996 28.28705 29782 ft 325 kts 266°
2026-05-06 16:06 55.07775 28.24626 26968 ft 394 kts 257°
2026-05-06 16:07 55.06792 28.20036 24893 ft 422 kts 240°
2026-05-06 16:07 55.05327 28.15660 22534 ft 448 kts 239°
2026-05-06 16:07 55.03766 28.11014 20738 ft 450 kts 239°
2026-05-06 16:07 55.02218 28.06379 19474 ft 440 kts 240°
2026-05-06 16:08 54.93303 27.79545 9679 ft 428 kts 239°
2026-05-06 16:08 54.91876 27.75286 8892 ft 395 kts 239°
2026-05-06 16:08 54.90332 27.71753 9060 ft 344 kts 225°
2026-05-06 16:08 54.88545 27.69281 8535 ft 328 kts 211°
2026-05-06 16:09 54.86519 27.67512 7902 ft 316 kts 205°
2026-05-06 16:09 54.78581 27.60906 7625 ft 287 kts 206°
2026-05-06 16:09 54.67653 27.51776 5795 ft 281 kts 206°
2026-05-06 16:09 54.65913 27.50297 5137 ft 281 kts 207°
2026-05-06 16:10 54.64199 27.48798 4721 ft 272 kts 207°
2026-05-06 16:10 54.62544 27.47363 4378 ft 263 kts 207°
2026-05-06 16:10 54.60983 27.46019 4428 ft 239 kts 206°
2026-05-06 16:10 54.59541 27.44768 4362 ft 222 kts 207°
2026-05-06 16:11 54.58225 27.43584 4168 ft 215 kts 207°
2026-05-06 16:11 54.56892 27.42408 4267 ft 208 kts 207°
2026-05-06 16:11 54.55605 27.41329 4481 ft 214 kts 202°
2026-05-06 16:11 54.54162 27.40788 5041 ft 207 kts 185°
2026-05-06 16:12 54.52652 27.40701 5332 ft 226 kts 179°
2026-05-06 16:12 54.51004 27.40808 5329 ft 258 kts 179°
2026-05-06 16:12 54.49118 27.40914 5698 ft 270 kts 179°
2026-05-06 16:12 54.47234 27.41026 6115 ft 281 kts 178°
2026-05-06 16:13 54.34918 27.41859 9641 ft 277 kts 179°
2026-05-06 16:13 54.32968 27.41984 9812 ft 295 kts 176°
2026-05-06 16:13 54.30793 27.42492 9296 ft 333 kts 169°
2026-05-06 16:14 54.28544 27.43501 9676 ft 336 kts 162°
2026-05-06 16:14 54.26477 27.44881 10806 ft 314 kts 158°
2026-05-06 16:14 54.24332 27.46458 9217 ft 375 kts 157°
2026-05-06 16:14 54.22007 27.48336 7143 ft 392 kts 153°
2026-05-06 16:15 54.19624 27.50448 5847 ft 378 kts 153°
2026-05-06 16:15 54.17670 27.53082 4945 ft 349 kts 138°
2026-05-06 16:15 54.16031 27.55728 4906 ft 304 kts 135°
2026-05-06 16:15 54.14516 27.58223 4322 ft 307 kts 136°
2026-05-06 16:16 54.13016 27.60693 4166 ft 298 kts 136°
2026-05-06 16:16 54.11662 27.63022 5173 ft 247 kts 132°
2026-05-06 16:16 54.10622 27.65096 4732 ft 269 kts 130°
2026-05-06 16:16 54.09518 27.67556 4367 ft 259 kts 126°
2026-05-06 16:17 54.08329 27.69778 4127 ft 248 kts 141°
2026-05-06 16:17 54.06945 27.71781 3622 ft 249 kts 139°
2026-05-06 16:17 53.99259 27.83237 2100 ft 244 kts 135°
2026-05-06 16:17 53.98237 27.85321 2560 ft 205 kts 128°
2026-05-06 16:18 53.97407 27.87287 2708 ft 204 kts 124°
2026-05-06 16:18 53.96605 27.89328 2761 ft 209 kts 125°
2026-05-06 16:18 53.95807 27.91304 2732 ft 199 kts 128°
2026-05-06 16:18 53.94841 27.93104 2273 ft 216 kts 135°
2026-05-06 16:19 53.93796 27.94750 1897 ft 197 kts 139°
2026-05-06 16:19 53.92801 27.96220 1649 ft 184 kts 139°
2026-05-06 16:19 53.91848 27.97655 1367 ft 181 kts 137°
2026-05-06 16:19 53.90918 27.99087 1121 ft 180 kts 138°
2026-05-06 16:20 53.89997 28.00457 869 ft 176 kts 138°
2026-05-06 16:20 53.89127 28.01765 689 ft 160 kts 140°
2026-05-06 16:20 53.88338 28.02934 761 ft 145 kts 141°
2026-05-06 16:20 53.87486 28.04147 1155 ft 177 kts 140°
2026-05-06 16:21 53.86412 28.05584 1470 ft 216 kts 154°
2026-05-06 16:21 53.84918 28.05830 1744 ft 225 kts 189°
2026-05-06 16:21 53.83635 28.04208 1800 ft 245 kts 255°
2026-05-06 16:21 53.84347 28.01912 2236 ft 246 kts 323°
2026-05-06 16:22 53.85862 28.00240 2017 ft 252 kts 326°
2026-05-06 16:22 53.87254 27.98718 2000 ft 222 kts 326°
2026-05-06 16:22 53.88468 27.97102 1774 ft 221 kts 317°
2026-05-06 16:22 53.89704 27.95859 1762 ft 200 kts 354°
2026-05-06 16:23 53.90820 27.96699 1525 ft 181 kts 62°
2026-05-06 16:23 53.90778 27.98658 1303 ft 172 kts 117°
2026-05-06 16:23 53.90060 28.00351 923 ft 183 kts 136°
2026-05-06 16:23 53.89152 28.01715 679 ft 165 kts 140°
2026-05-06 16:24 53.88431 28.02812 676 ft 93 kts 136°
2026-05-06 16:24 53.88005 28.03427 676 ft 75 kts 136°
2026-05-06 16:24 53.87601 28.04030 676 ft 79 kts 139°
2026-05-06 16:24 53.87285 28.04508 676 ft 44 kts 141°
2026-05-06 16:25 53.87069 28.04863 676 ft 37 kts 99°
2026-05-06 16:25 53.87212 28.05247 676 ft 33 kts 27°
2026-05-06 16:25 53.87354 28.05163 676 ft 2 kts 316°